| time (UTC) | temp F | wind direction | speed knots | gust knots | rain 1hr in | rain 24hr in | rain mn in | humidity % | barometer mb |
| 20260502194520 | 60 | 360 | 2.6 | 7.8 | 0.00 | 0.00 | 0.00 | 45 | 1012.5 |
| 20260502193030 | 60 | 52 | 4.3 | 9.6 | 0.00 | 0.00 | 0.00 | 45 | 1012.6 |
| 20260502191513 | 59 | 36 | 0.0 | 8.7 | 0.00 | 0.00 | 0.00 | 45 | 1012.9 |
| 20260502190013 | 60 | 17 | 4.3 | 9.6 | 0.00 | 0.00 | 0.00 | 41 | 1012.9 |
| 20260502184531 | 59 | 111 | 2.6 | 8.7 | 0.00 | 0.00 | 0.00 | 48 | 1012.9 |
| 20260502183022 | 58 | 47 | 3.5 | 7.0 | 0.00 | 0.00 | 0.00 | 49 | 1013.4 |
| 20260502181527 | 58 | 23 | 1.7 | 3.5 | 0.00 | 0.00 | 0.00 | 50 | 1013.6 |
| 20260502163024 | 56 | 329 | 3.5 | 7.8 | 0.00 | 0.00 | 0.00 | 55 | 1014.5 |
| 20260502161525 | 57 | 335 | 0.9 | 7.8 | 0.00 | 0.00 | 0.00 | 56 | 1014.5 |
| 20260502151536 | 56 | 39 | 3.5 | 7.8 | 0.00 | 0.00 | 0.00 | 56 | 1014.8 |
| 20260502123003 | 52 | 26 | 2.6 | 4.3 | 0.00 | 0.00 | 0.00 | 75 | 1014.1 |
| 20260502121505 | 52 | 27 | 1.7 | 4.3 | 0.00 | 0.00 | 0.00 | 77 | 1014.1 |
| 20260502114503 | 51 | 10 | 0.9 | 1.7 | 0.00 | 0.00 | 0.00 | 80 | 1014.2 |
| 20260502113004 | 50 | 17 | 0.9 | 2.6 | 0.00 | 0.00 | 0.00 | 81 | 1014.2 |
| 20260502111504 | 49 | 30 | 0.0 | 0.9 | 0.00 | 0.00 | 0.00 | 84 | 1014.2 |
| 20260502110004 | 49 | 30 | 0.0 | 0.9 | 0.00 | 0.00 | 0.00 | 84 | 1014.2 |
| 20260502104511 | 49 | 36 | 0.0 | 1.7 | 0.00 | 0.00 | 0.00 | 84 | 1013.9 |
| 20260502103006 | 48 | 246 | 0.0 | 1.7 | 0.00 | 0.00 | 0.00 | 84 | 1013.6 |
| 20260502101504 | 48 | 246 | 0.0 | 0.0 | 0.00 | 0.00 | 0.00 | 83 | 1013.6 |
| 20260502091508 | 49 | 246 | 0.0 | 0.0 | 0.00 | 0.00 | 0.00 | 82 | 1013.4 |
| 20260502071511 | 51 | 338 | 0.0 | 1.7 | 0.00 | 0.00 | 0.00 | 80 | 1013.1 |
| 20260502070008 | 51 | 216 | 0.0 | 1.7 | 0.00 | 0.00 | 0.00 | 80 | 1013.0 |
| 20260502064518 | 52 | 342 | 0.0 | 1.7 | 0.00 | 0.00 | 0.00 | 79 | 1012.9 |
| 20260502063017 | 52 | 203 | 0.0 | 0.0 | 0.00 | 0.00 | 0.00 | 77 | 1012.7 |
| 20260502061511 | 53 | 203 | 0.0 | 0.9 | 0.00 | 0.00 | 0.00 | 77 | 1012.8 |
| 20260502060012 | 53 | 166 | 0.0 | 2.6 | 0.00 | 0.00 | 0.00 | 76 | 1013.0 |
| 20260502054507 | 53 | 192 | 0.0 | 1.7 | 0.00 | 0.00 | 0.00 | 76 | 1013.1 |
| 20260502053017 | 54 | 181 | 0.0 | 3.5 | 0.00 | 0.00 | 0.00 | 76 | 1013.3 |
| 20260502051514 | 54 | 180 | 0.0 | 2.6 | 0.00 | 0.00 | 0.00 | 76 | 1013.5 |
| 20260502050015 | 54 | 197 | 0.0 | 3.5 | 0.00 | 0.00 | 0.00 | 75 | 1013.6 |
| 20260502044516 | 54 | 162 | 0.0 | 1.7 | 0.00 | 0.00 | 0.00 | 75 | 1013.7 |
| 20260502043017 | 54 | 162 | 0.0 | 1.7 | 0.00 | 0.00 | 0.00 | 1013.9 | |
| 20260502041510 | 54 | 178 | 0.0 | 1.7 | 0.00 | 0.00 | 0.00 | 75 | 1013.9 |
| 20260502040006 | 54 | 182 | 0.9 | 2.6 | 0.00 | 0.00 | 0.00 | 74 | 1013.7 |
| 20260502034506 | 54 | 195 | 0.0 | 1.7 | 0.00 | 0.00 | 0.00 | 74 | 1013.8 |
| 20260502033012 | 54 | 224 | 0.0 | 1.7 | 0.00 | 0.00 | 0.00 | 75 | 1013.7 |
| 20260502031515 | 53 | 204 | 0.9 | 6.1 | 0.00 | 0.00 | 0.00 | 76 | 1013.5 |
| 20260502030001 | 53 | 179 | 0.9 | 2.6 | 0.00 | 0.00 | 0.00 | 77 | 1013.3 |
| 20260502024504 | 52 | 157 | 0.9 | 3.5 | 0.00 | 0.00 | 0.00 | 77 | 1013.4 |
| 20260502023006 | 52 | 155 | 0.0 | 1.7 | 0.00 | 0.00 | 0.00 | 74 | 1013.6 |
| 20260502021513 | 52 | 119 | 0.0 | 0.0 | 0.00 | 0.00 | 0.00 | 73 | 1013.4 |
| 20260502020025 | 53 | 119 | 0.0 | 1.7 | 0.00 | 0.00 | 0.00 | 72 | 1013.4 |
| 20260502014505 | 53 | 136 | 0.0 | 1.7 | 0.00 | 0.00 | 0.00 | 71 | 1013.3 |
| 20260502013003 | 54 | 127 | 0.0 | 2.6 | 0.00 | 0.00 | 0.00 | 70 | 1013.4 |
| 20260502011512 | 54 | 111 | 0.0 | 1.7 | 0.00 | 0.00 | 0.00 | 67 | 1013.2 |
| 20260502010014 | 55 | 69 | 0.0 | 1.7 | 0.00 | 0.00 | 0.00 | 66 | 1013.1 |
| 20260502004520 | 56 | 123 | 0.0 | 3.5 | 0.00 | 0.00 | 0.00 | 65 | 1012.8 |
| 20260502003024 | 57 | 130 | 0.9 | 5.2 | 0.00 | 0.00 | 0.00 | 64 | 1012.6 |
| 20260502001511 | 58 | 69 | 0.9 | 5.2 | 0.00 | 0.00 | 0.00 | 63 | 1012.7 |
| 20260502000017 | 59 | 124 | 0.9 | 6.1 | 0.00 | 0.00 | 0.00 | 63 | 1012.7 |
| 20260501234517 | 60 | 149 | 1.7 | 5.2 | 0.00 | 0.00 | 0.00 | 61 | 1012.6 |
| 20260501233021 | 61 | 88 | 0.9 | 5.2 | 0.00 | 0.00 | 0.00 | 59 | 1012.7 |
| 20260501231505 | 62 | 143 | 0.9 | 6.1 | 0.00 | 0.00 | 0.00 | 56 | 1012.5 |
| 20260501230010 | 63 | 91 | 1.7 | 7.8 | 0.00 | 0.00 | 0.00 | 58 | 1012.4 |
| 20260501224518 | 64 | 130 | 1.7 | 7.8 | 0.00 | 0.00 | 0.00 | 56 | 1012.4 |
| 20260501223018 | 66 | 133 | 3.5 | 9.6 | 0.00 | 0.00 | 0.00 | 51 | 1012.3 |
| 20260501221523 | 67 | 211 | 0.9 | 5.2 | 0.00 | 0.00 | 0.00 | 47 | 1012.4 |
| 20260501220008 | 67 | 227 | 1.7 | 5.2 | 0.00 | 0.00 | 0.00 | 43 | 1012.5 |
| 20260501214515 | 67 | 143 | 1.7 | 7.8 | 0.00 | 0.00 | 0.00 | 45 | 1012.5 |
| 20260501213025 | 68 | 111 | 2.6 | 8.7 | 0.00 | 0.00 | 0.00 | 43 | 1012.6 |
| 20260501211521 | 69 | 219 | 1.7 | 5.2 | 0.00 | 0.00 | 0.00 | 44 | 1012.6 |
| 20260501210006 | 69 | 153 | 0.9 | 4.3 | 0.00 | 0.00 | 0.00 | 41 | 1012.7 |
| 20260501204510 | 68 | 167 | 2.6 | 7.8 | 0.00 | 0.00 | 0.00 | 40 | 1012.8 |
| 20260501203017 | 68 | 210 | 1.7 | 7.0 | 0.00 | 0.00 | 0.00 | 38 | 1013.1 |
| 20260501201523 | 68 | 182 | 0.9 | 6.1 | 0.00 | 0.00 | 0.00 | 39 | 1013.3 |
| 20260501200027 | 67 | 119 | 3.5 | 7.0 | 0.00 | 0.00 | 0.00 | 44 | 1013.5 |